LAPAN-A2 (40931 NORAD) Tracking and Keplerian Element Data

This shows tracking and keplerian element data for the satellite.

Feedback or suggestion? Click here.




ElementValue
Catalog40931
NameLAPAN-A2
Epoch Orbit32675
Epoch Day286.36630623
Epoch Year2021
RAAN131.446
Inclination5.9955
Eccentricity0.0013657
Argument of Perigee276.1121
Mean Anonmoly262.8027
Mean Motion14.76694506
Decay Rate7.23E-06
L11 40931U 15052B 21286.36630623 .00000723 00000-0 11414-4 0 9995
L22 40931 5.9955 131.4460 0013657 276.1121 262.8027 14.76694506326751

Live tracking and technical data element details for LAPAN-A2 (NORAD 40931). LAPAN-A2 can be tracked NOW for your location showing map with azimuth and elevation plus other details from your city location.

Track the satellite on the map from your city or location and see movement details for azimuth, elevation, latitude, longitude, range, height, and movement on the map or in text.







IsCatalogInMostPopularTable: catalog: 40931, numindb: 644
Update: records affected: 1



GetName: 40931 LAPAN-A2

Hit Count: updated at: Tue, 19 Oct 2021 08:39:43 GMT